Location: Cheching
(60.0667°N, 164.2167°W)
Time: 14:53:32
(UTC+00:00)

O/OREOS (USA 219) - Pass Details

Date: 19 January 2021
Orbit: 621 x 646 km, 72.0° (Epoch: 22 May)

Event Time Altitude Azimuth Distance (km) Brightness Sun altitude
Rises 18:29:43 0° 193° (SSW) 2,952 ? -7.7°
Reaches altitude 10° 18:32:04 10° 187° (S) 2,046 ? -7.5°
Maximum altitude 18:36:26 44° 116° (ESE) 897 ? -7.0°
Drops below altitude 10° 18:40:49 10° 44° (NE) 2,055 ? -6.5°
Sets 18:43:10 0° 39° (NE) 2,967 ? -6.3°
